Время (UTC), дата Ветер
(°,м/с) 
Видим.   Явления Облачность Т
(°С)
Тd
(°С)
f(%) Тe
(°С)
Pmin
(гПа)
dP
(гПа)
Po
(мм)
O2
(г/м3)
Тmin Tmax R s Состояние
почвы
00 01.03.16 130 (ЮВ) 0100 м  туман  ?/?  
+3.1 +2.3 94 +2  1029  -1.2  730  290           
03 01.03.16 130 (ЮВ) 4000 м  дымка{туман}  3/3 100 м 
[St]
+2.9 +2.2 95 1028.1  -0.8  729  290  +2.2         
06 01.03.16 150 (ЮВ) 20000 м  {туман}  4/0 верхняя 
[Ci fib]
+6.1 +4.1 87 +4  1027.1  -0.3  729  287  +2.2         
09 01.03.16 130 (ЮВ) 20000 м    6/0 верхняя 
[Ci fib]
+12.4 +4.9 60 +12  1024.1  -1.7  728  280           
12 01.03.16 120 (ЮВ) 20000 м    6/0 верхняя 
[Ci fib]
+15.8 +4.5 47 +15  1020.8  -2.5  726  276           
15 01.03.16 140 (ЮВ) 6{10}  20000 м    8/0 верхняя 
[Ci fib]
+8.6 +3.2 69 +7  1020.3  -1.8  725  283    +16.1       
18 01.03.16 130 (ЮВ) 6{11}  10 км    6/0 верхняя 
[Ci fib]
+4.1 +2.5 89 +1  1019.4  -1.6  724  287           
21 01.03.16 130 (ЮВ) 2000 м  дымка  10/10 100 м 
[St]
+2.6 +1.8 94 1018.4  -1.3  723  288           
00 02.03.16 160 (Ю) 9-11{11}  4000 м  дымка{туман}  10/10 100 м 
[St]
+2.3 +1.5 94 -2  1016.1  -2.2  721  288           
03 02.03.16 140 (ЮВ) 7{12}  1500 м  дымка  10/10 100 м 
[St]
+1.2 +0.4 94 -2  1014.2  -2.2  719  288  +1.2         
06 02.03.16 120 (ЮВ) 20000 м    10/0 средняя, верхняя 
[Ac As|Cs]
+3.8 +1.7 86 +1  1014.1  0.4  720  286  +0.8         
09 02.03.16 110 (В) 20000 м    8/0 средняя 
[Ac trans]
+11.9 +1.8 50 +11  1012.1  -0.4  719  277           
12 02.03.16 110 (В) 20000 м    10/3 1000 м средняя, верхняя 
[Sc|Ac As|Ci sp]
+15.8 +2 39 +16  1009.8  -1.4  718  273           
15 02.03.16 040 (СВ) 20000 м    9/0 средняя 
[Ac trans]
+9.5 +3.9 68 +9  1010.4  -0.5  718  279    +16.9       
18 02.03.16 140 (ЮВ) 20000 м    3/0 средняя 
[Ac trans]
+5.3 +3.3 87 +5  1010.9  -0.3  718  283           
21 02.03.16 220 (ЮЗ) 20000 м    ясно 
+6.8 +2.1 72 +7  1008.6  -1.9  716  281           
00 03.03.16 060 (СВ) 20000 м    3/0 средняя 
[Ac trans]
+4.9 +1.5 79 +5  1007.9  -1  715  283           
03 03.03.16 110 (В) 0400 м  туман  ?/?  
+1.3 +0.4 94 1008  -0.6  715  287  +1.2         
06 03.03.16 360 (С) 1000 м  дымка{туман}  9/4 100 м средняя 
[St|Ac trans]
+2.8 +2.1 95 +4  1007.5  -0.1  715  285  +1         
09 03.03.16 100 (В) 10 км  {туман}  10/4 300 м средняя 
[St|Ac und]
+5.3 +2.9 84 +5  1006.4  -0.6  714  282           
12 03.03.16 040 (СВ) 20000 м  {туман}  10/3 600 м средняя 
[Sc|Ac und]
+7 +3.3 77 +6  1005.3  -0.7  714  280           
15 03.03.16 100 (В) 20000 м    10/3 300 м средняя 
[Sc|Ac und]
+5.4 +3.1 85 +5  1005.2  -0.4  714  281    +7.3       
18 03.03.16 090 (В) 10 км    10/10 200 м 
[St]
+4.2 +3.3 94 +4  1005.2  -0.3  713  282           
21 03.03.16 150 (ЮВ) 0200 м  туман  ?/?  
+3.9 +3.1 95 +3  1005.3  -0.1  713  283           
00 04.03.16 210 (ЮЗ) 0400 м  туман  ?/?  
+3.8 +3.1 95 +3  1006.1  0.8  714  283           
03 04.03.16 300 (СЗ) 20000 м  {туман}  3/0 средняя 
[Ac trans]
+9.6 +0.9 55 +8  1006.2  1.2  715  278  +3.7         
06 04.03.16 260 (З) 8-13{16}  20000 м  {туман}  8/3 600 м средняя 
[Sc|Ac trans]
+13.7 +3.6 50 +12  1007.1  1.6  716  274           
09 04.03.16 290 (З) 6-10{15}  20000 м    8/0 средняя 
[Ac trans]
+15.4 +1.8 40 +15  1006.8  716  273           
12 04.03.16 340 (С) 4{11}  20000 м    6/0 средняя, верхняя 
[Ac trans|Ci fib]
+17.1 +2.9 39 +17  1006.1  -0.3  716  271           
15 04.03.16 360 (С) 20000 м    8/0 средняя, верхняя 
[Ac trans|Ci fib]
+13.5 +2.4 47 +14  1007.7  0.9  716  275    +17.7       
18 04.03.16 060 (СВ) 20000 м    8/0 средняя 
[Ac trans]
+11.4 +2.7 55 +11  1008.4  0.3  717  277           
21 04.03.16 100 (В) 20000 м  {ливн. осадки}  8/3 1000 м кучево-дожд., средняя 
[Cb calv|Ac trans]
+8.8 +3.4 69 +8  1009  0.1  717  279           
00 05.03.16 070 (В) 20000 м  {ливн. осадки}  3/0 средняя 
[Ac trans]
+6.1 +3.5 83 +5  1009.6  717  282           
03 05.03.16 100 (В) 20000 м    5/0 средняя 
[Ac trans]
+6 +4.3 89 +4  1009  716  282  +6    0.0     
06 05.03.16 120 (ЮВ) 20000 м    5/0 средняя 
[Ac trans]
+11 +5.3 68 +10  1008.2  -0.1  716  277  +5.9         
09 05.03.16 150 (ЮВ) 6{12}  20000 м    8/0 средняя 
[Ac trans]
+11.9 +4 58 +11  1008.3  0.3  717  276           
12 05.03.16 070 (В) 20000 м  {ливн. осадки}  8/0 
+11.7 +7.7 76 +11  1008.2  0.1  717  275           
15 05.03.16 110 (В) 20000 м  в посл. час ливневой дождь  10/5 1000 м кучево-дожд., средняя 
[Cb calv|Ac und]
+10.2 +7.3 82 +9  1010  1.4  718  277    +14  0.0     
18 05.03.16 150 (ЮВ) 20000 м  {ливн. осадки}  8/3 1000 м кучево-дожд., средняя 
[Cb calv|Ac trans]
+7.6 +5.8 88 +6  1011.2  0.6  718  280           
21 05.03.16 290 (З) 20000 м    8/0 средняя 
[Ac trans]
+7.9 +5.9 87 +7  1012.1  0.9  719  280           
00 06.03.16 200 (Ю) 20000 м    8/0 средняя 
[Ac trans]
+5.4 +4.3 93 +5  1012.7  0.1  719  283           
03 06.03.16 290 (З) 20000 м    9/0 средняя, верхняя 
[Ac trans|Ci fib]
+6.9 +5.4 90 +6  1013.7  1.2  720  282  +4.7    0.7     
06 06.03.16 300 (СЗ) 20000 м    10/8 300 м средняя 
[St|Ac und]
+8.1 +6.8 91 +8  1015.5  721  281           
09 06.03.16 290 (З) 10 км    10/4 300 м 
[Sc]
+10.3 +6.5 77 +9  1016.2  722  279           
12 06.03.16 280 (З) 20000 м    6/1 600 м средняя, верхняя 
[Sc|Ac trans|Ci fib]
+10.9 +5.4 69 +11  1016.5  0.3  722  279           
15 06.03.16 320 (СЗ) 20000 м    4/1 300 м средняя, верхняя 
[Sc|Ac lent|Ci sp]
+6.9 +4.3 83 +6  1019  1.6  724  284    +11.5       
18 06.03.16 030 (СВ) 1000 м  дымка  10/10 200 м 
[St]
+4.9 +3.9 93 +6  1020.8  1.3  725  286           
21 06.03.16 150 (ЮВ) 0100 м  туман  ?/?  
+5 +4.2 95 +4  1021.2  0.4  725  286           
00 07.03.16 170 (Ю) 0200 м  туман  ?/?  
+5.5 +4.8 95 +4  1020.9  -0.3  725  285           
03 07.03.16 120 (ЮВ) 0200 м  туман  ?/?  
+5.8 +5.1 95 +6  1021.5  0.7  725  285  +4.8         
06 07.03.16 120 (ЮВ) 0200 м  туман  ?/?  
+6 +5.3 95 +4  1022.8  0.7  726  285           
09 07.03.16 130 (ЮВ) 3000 м  дымка{туман}  10/10 100 м 
[St]
+6.4 +5.7 95 +5  1022.4  -0.3  726  285           
12 07.03.16 110 (В) 10 км  {туман}  10/8 300 м средняя 
[St|Ac und]
+8.9 +5 77 +8  1020.5  -1.3  725  282           
15 07.03.16 090 (В) 20000 м    9/0 верхняя 
[Ci fib]
+7.2 +4 80 +6  1020.7  -0.2  725  284    +10.4       
18 07.03.16 110 (В) 20000 м    4/0 верхняя 
[Ci fib]
+4 +2.4 89 +2  1021.6  0.2  725  287           
21 07.03.16 100 (В) 4000 м  дымка  6/0 верхняя 
[Ci fib]
+3.6 +2.7 94 +1  1021.2  -0.4  725  288           
00 08.03.16 110 (В) 0900 м  туман  ?/?  
+4.7 +3.9 95 +2  1020.2  -0.7  724  286           
03 08.03.16 110 (В) 0200 м  туман  ?/?  
+3.4 +2.7 95 +1  1020.6  0.2  724  288  +2.6         
06 08.03.16 110 (В) 7{10}  0200 м  туман  ?/?  
+3.7 +3 95 +1  1020.9  0.4  725  287           
09 08.03.16 080 (В) 7{10}  4000 м  дымка{туман}  10/10 200 м 
[St]
+4.2 +3.5 95 +1  1020.4  -0.4  724  287           
12 08.03.16 090 (В) 20000 м  {туман}  4/4 600 м 
[Sc]
+10.1 +2.4 59 +9  1017.9  -1.3  723  281           
15 08.03.16 070 (В) 5{10}  20000 м    ясно 
+7.7 +0.1 59 +6  1017.8  -0.5  723  283    +10.8       
18 08.03.16 080 (В) 20000 м    ясно 
+2.6 -0.9 78 +1  1019.2  -0.5  723  289           
21 08.03.16 100 (В) 20000 м    ясно 
+0.7 -1.7 84 -2  1019  -0.6  723  291           
00 09.03.16 140 (ЮВ) 20000 м    ясно 
-0 -1.1 92 -1  1018.3  -0.8  722  291           
03 09.03.16 100 (В) 10 км    ясно 
-2 -3.3 91 -4  1019  0.3  722  293  -2.3         
06 09.03.16 100 (В) 20000 м    3/0 верхняя 
[Ci fib]
+3.3 -0.1 78 +2  1018.7  0.8  723  288           
09 09.03.16 050 (СВ) 20000 м    1/1 1000 м 
[Sc]
+8.9 +1.8 61 +8  1017.1  -0.5  722  282           
12 09.03.16 060 (СВ) 20000 м    4/4 600 м 
[Sc]
+10.9 +2.5 56 +11  1015.9  -0.7  722  279           
15 09.03.16 050 (СВ) 20000 м    3/0 средняя 
[Ac trans]
+4.9 +1 76 +3  1017.6  0.5  722  286    +11.1       
18 09.03.16 070 (В) 3000 м  дымка  10/10 100 м 
[St]
+1.6 +0.6 93 -1  1019.2  0.8  723  289           
21 09.03.16 110 (В) 1800 м  дымка  10/10 100 м 
[St]
+1.5 +0.6 94 -1  1018.1  -1  722  289           
00 10.03.16 130 (ЮВ) 20000 м  дымка  10/10 600 м 
[St]
+1.5 +0.6 94 -1  1017.1  -1  721  289           
03 10.03.16 090 (В) 0800 м  туман  ?/?  
+1.5 +0.7 94 -1  1017.2  0.1  722  289  +1.3         
06 10.03.16 110 (В) 3000 м  дымка{туман}  10/10 100 м 
[St]
+2.3 +1.5 94 1017.2  0.2  722  288           
09 10.03.16 080 (В) 10 км    10/10 200 м 
[St]
+4.7 +1.8 81 +3  1016.3  -0.4  721  285           
12 10.03.16 080 (В) 7{10}  20000 м    10/8 600 м средняя 
[Sc|Ac und]
+6.7 +1.5 69 +4  1014.8  -1.1  721  283           
15 10.03.16 100 (В) 6{10}  10 км    10/8 300 м средняя 
[Sc|Ac und]
+4.5 +0.7 76 +2  1015.8  0.5  721  286    +7.3       
18 10.03.16 100 (В) 8-10{11}  10 км    10/8 300 м средняя 
[St|Ac und]
+3.1 +0.3 82 1016.2  0.1  721  287           
21 10.03.16 110 (В) 8-10{12}  10 км    10/10 200 м 
[St]
+2.4 +0.7 89 -1  1016.1  -0.2  721  288           
00 11.03.16 110 (В) 7{12}  10 км    10/6 200 м средняя 
[St|Ac und]
+2.1 +0.5 89 -1  1016.1  721  288           
03 11.03.16 110 (В) 7{10}  20000 м    10/6 200 м средняя 
[St|Ac und]
+2.2 +0.7 90 -1  1016.2  0.5  721  288  +2.1         
06 11.03.16 110 (В) 8-11{12}  20000 м    10/8 300 м 
[St]
+3 +1 87 -1  1017.2  0.7  722  287           
09 11.03.16 100 (В) 7{11}  20000 м    10/8 300 м средняя 
[St|Ac und]
+4.5 +0.9 77 +2  1017.3  0.4  722  286           
12 11.03.16 110 (В) 5{10}  20000 м    10/5 600 м средняя 
[Sc|Ac und]
+6 +0.9 70 +4  1017.6  0.5  722  285           
15 11.03.16 110 (В) 10 км  слаб. ливневой дождь  10/5 300 м кучево-дожд., средняя 
[Cb cap|Ac und]
+4 +2.7 91 +2  1018.8  0.9  723  287    +6.9     
18 11.03.16 110 (В) 10 км  {ливн. осадки, дождь}  10/6 200 м средняя 
[St|Ac und]
+3.3 +2.3 93 +1  1019.7  0.7  724  288           
21 11.03.16 130 (ЮВ) 5000 м  дымка  8/8 200 м 
[St]
+3 +2.1 94 +1  1019.7  724  288           
00 12.03.16 120 (ЮВ) 2000 м  дымка  9/4 1000 м средняя 
[Sc|Ac trans]
+3 +2.2 94 +2  1019.7  724  288           
03 12.03.16 тихо ()   0300 м  туман  ?/?  
+1.8 +0.9 94 +2  1020.2  724  289  +1.8    0.0     
06 12.03.16 280 (З) 10 км  {туман}  9/3 600 м средняя 
[Sc diur, vesp|Ac trans]
+7.3 +4.9 85 +7  1020  0.9  724  283  +1.4         
09 12.03.16 290 (З) 10 км    10/5 600 м средняя 
[Sc|Ac und]
+8.9 +4.6 74 +8  1020.4  0.6  725  282           
12 12.03.16 300 (СЗ) 20000 м    9/4 600 м средняя 
[Sc diur, vesp|Ac trans]
+9.2 +3.8 69 +8  1020.1  -0.2  725  282           
15 12.03.16 360 (С) 6000 м  дымка  8/3 300 м верхняя 
[St|Ci fib]
+6.5 +4.6 88 +6  1021.1  0.4  725  285    +10.2       
18 12.03.16 210 (ЮЗ) 3000 м  дымка  8/5 600 м средняя 
[Sc|Ac trans]
+5.2 +4.2 93 +5  1022.3  0.9  726  286           
21 12.03.16 230 (ЮЗ) 8000 м    10/5 600 м средняя 
[Sc diur, vesp|Ac und]
+5 +3.2 88 +5  1022.2  -0.2  726  287           
00 13.03.16 260 (З) 10 км    10/5 600 м средняя 
[Sc|Ac und]
+5 +3 87 +4  1021.7  -0.4  725  286           
03 13.03.16 270 (З) 20000 м    10/6 300 м средняя 
[Sc|Ac und]
+5.1 +3.1 87 +4  1021.4  -0.3  725  286  +4.7         
06 13.03.16 270 (З) 10 км    10/6 300 м средняя 
[Sc|Ac und]
+6 +3.2 82 +4  1021.2  725  285           
09 13.03.16 270 (З) 10 км    10/8 300 м средняя 
[Sc|Ac und]
+7.3 +3.1 75 +6  1020  -0.9  724  284           
12 13.03.16 290 (З) 20000 м    8/8 300 м 
[Sc]
+7.9 +3.1 72 +6  1018.9  -0.9  724  283           
15 13.03.16 300 (СЗ) 3{10}  20000 м    9/9 600 м 
[Sc]
+6.5 +1.6 71 +6  1018.2  -0.9  723  284    +8.1       
18 13.03.16 310 (СЗ) 20000 м    9/5 600 м средняя 
[Sc|Ac trans]
+5.2 +1.6 78 +5  1018  -0.4  723  285           
21 13.03.16 290 (З) 20000 м    10/6 300 м средняя 
[Sc|Ac und]
+4.7 +1.7 81 +4  1017  -1.1  722  286           
00 14.03.16 310 (СЗ) 20000 м    10/5 600 м средняя 
[Sc|Ac und]
+3.8 +0.9 81 +5  1015.5  -1.5  721  286           
03 14.03.16 340 (С) 20000 м    10/6 1000 м средняя 
[Sc|Ac und]
+3.2 +0.6 83 +3  1014.1  -1.4  720  286  +3.2         
06 14.03.16 тихо ()   20000 м    10/4 1000 м средняя 
[Sc|Ac und]
+4.1 -0.2 74 +4  1012.9  -0.9  719  285  +2.6         
09 14.03.16 160 (Ю) 20000 м  слаб. ливневой дождь  10/6 300 м кучево-дожд., средняя 
[Cb cap|Ac und]
+4 +0.7 79 +4  1010.7  -2.1  717  285           
12 14.03.16 170 (Ю) 20000 м  в посл. час ливневой дождь  10/6 600 м кучево-дожд., средняя 
[Cb calv|Ac und]
+4.3 +0.5 76 +4  1008.5  -2  716  284           
15 14.03.16 230 (ЮЗ) 20000 м    10/6 600 м кучево-дожд., средняя 
[Cb calv|Ac und]
+3.9 +1.4 84 +3  1007.7  -0.8  715  284    +4.6  0.0     
18 14.03.16 330 (СЗ) 5{10}  3000 м  слаб. ливневой снег  10/6 200 м кучево-дожд., средняя 
[Cb cap|Ac und]
+0.4 -0.4 94 -3  1007.7  -0.7  715  287           
21 14.03.16 300 (СЗ) 10 км  {ливн. осадки}  10/6 300 м кучево-дожд., средняя 
[Cb calv|Ac und]
+0.7 -0.4 92 -1  1007.9  0.3  715  287           
00 15.03.16 290 (З) 4000 м  дымка{ливн. осадки}  10/6 200 м кучево-дожд., средняя 
[Cb calv|Ac und]
+0.6 -0.6 92 -2  1008.5  0.5  715  288           
03 15.03.16 350 (С) 2000 м  слаб. снег{туман}  10/10 100 м 
[Ns]
-0.7 -1.4 95 -3  1010.8  1.9  717  290  -0.7    <0.5  равномерный
мокрый или
старый снег
100% 
06 15.03.16 010 (С) 10 км  слаб. снег  10/10 200 м 
[Frnb|Ns]
-1.7 -2.5 94 -5  1014.1  2.9  719  292  -1.8         
09 15.03.16 010 (С) 2500 м  ливневой снег  10/8 200 м кучево-дожд., средняя 
[Cb cap|Ac und]
-1.8 -3.1 91 -5  1016.5  2.2  721  293           
12 15.03.16 360 (С) 20000 м  {ливн. осадки}  10/8 600 м кучево-дожд., средняя 
[Cb calv|Ac und]
-1.6 -4.7 79 -5  1018  1.4  722  293           
15 15.03.16 350 (С) 20000 м    8/6 600 м кучево-дожд., средняя 
[Cb cap|Ac As]
-1.9 -5.8 75 -4  1019.4  1.3  723  294    -0.7     
18 15.03.16 340 (С) 20000 м  слаб. снег  10/6 600 м средняя 
[Sc diur, vesp|Ac und]
-2.3 -5.8 77 -3  1020.8  1.2  723  295           
21 15.03.16 330 (СЗ) 20000 м  слаб. ливневой снег  10/6 300 м кучево-дожд., средняя 
[Cb cap|Ac As]
-3.4 -6.2 81 -6  1021.1  0.1  724  296           
00 16.03.16 300 (СЗ) 20000 м  {ливн. осадки}  9/5 600 м средняя 
[Sc|Ac As]
-3.9 -7.8 74 -6  1021.1  0.1  723  296           
03 16.03.16 290 (З) 20000 м    8/4 600 м средняя 
[Sc|Ac und]
-4.2 -9.3 68 -6  1021.5  0.3  724  297  -4.8    0.3  равномерный
сухой снег
100% 
06 16.03.16 320 (СЗ) 20000 м  {снег}  8/8 1000 м 
[Sc]
-2.9 -11.6 51 -6  1022.5  1.2  725  296           
09 16.03.16 310 (СЗ) 6-10{11}  20000 м    8/5 1000 м средняя 
[Sc|Ac trans]
-1.3 -9.5 54 -5  1021.9  -0.3  724  294           
12 16.03.16 300 (СЗ) 6-11{11}  20000 м    3/3 1000 м 
[Sc]
+0.6 -9.1 48 -3  1020.6  -0.8  724  292           
15 16.03.16 290 (З) 5{11}  20000 м    ясно 
-0.2 -9.9 48 -3  1020.5  -0.3  724  293    +1.3  0.0     
18 16.03.16 260 (З) 20000 м    ясно 
-3.9 -9.7 64 -7  1021.6  0.2  724  297           
21 16.03.16 260 (З) 8-11{11}  20000 м    ясно 
-2.3 -9 60 -7  1020  -1.2  723  295           
00 17.03.16 260 (З) 10-14{14}  20000 м    ясно 
-3.3 -8.1 69 -9  1018.9  -1.2  722  295           
03 17.03.16 250 (З) 11-15{17}  20000 м    4/0 средняя 
[Ac trans]
-1.3 -8 60 -7  1016.9  -1.5  721  293  -3.9         
06 17.03.16 260 (З) 13-19{20}  20000 м    8/0 средняя 
[Ac trans]
+1.5 -7.3 52 -4  1015.9  -0.4  721  289           
09 17.03.16 270 (З) 16-25{25}  20000 м    10/5 300 м верхняя 
[Sc|Cs]
+3.7 -5.4 51 -2  1014.9  -0.5  720  287           
12 17.03.16 280 (З) 16-26{26}  20000 м  {снег}  8/5 600 м средняя 
[Sc|Ac trans]
+4.5 -4.8 51 1013.4  -0.5  719  286           
15 17.03.16 270 (З) 13-17{23}  20000 м    10/5 600 м средняя 
[Sc|Ac und]
+3.3 -3.8 60 -1  1014.1  0.4  720  287    +5  0.0     
18 17.03.16 270 (З) 14-22{22}  20000 м    9/6 1000 м средняя 
[Sc|Ac trans]
+2.9 -4.5 58 -2  1014.5  0.3  720  287           
21 17.03.16 260 (З) 14-21{23}  20000 м    10/6 1000 м средняя 
[Sc|Ac und]
+3.1 -2.2 68 -2  1013.7  -0.7  719  287           
00 18.03.16 270 (З) 12-18{24}  20000 м    10/6 1000 м средняя 
[Sc|Ac und]
+3 -2.4 68 -2  1012.7  -0.9  719  287           
03 18.03.16 280 (З) 16-23{25}  20000 м    8/4 1000 м средняя 
[Sc|Ac trans]
+3.8 -3.2 60 -1  1010.9  -1.5  717  285  +2.8         
06 18.03.16 260 (З) 13-18{23}  20000 м    9/3 1000 м средняя 
[Sc|Ac trans]
+4.6 -2.4 60 1010.1  -0.6  717  284           
09 18.03.16 270 (З) 18-26{29}  20000 м    10/4 600 м средняя 
[Sc|Ac und]
+6.5 -3.9 47 +2  1008  -1.7  716  282           
12 18.03.16 270 (З) 18-24{28}  20000 м    8/8 1000 м 
+7.9 -3.2 45 +4  1007  -0.6  715  280           
15 18.03.16 270 (З) 12-16{25}  20000 м    9/4 1000 м средняя 
[Sc|Ac trans]
+5.5 -2.5 56 +2  1008.2  0.6  716  283    +8.4       
18 18.03.16 260 (З) 11-17{20}  20000 м    9/0 средняя 
[Ac trans]
+5 -3.8 53 +1  1008.5  0.2  716  284           
21 18.03.16 250 (З) 11-15{24}  20000 м    9/0 средняя 
[Ac trans]
+5.5 -5.6 45 +2  1007.4  -0.9  715  283           
00 19.03.16 190 (Ю) 5{15}  20000 м    8/0 средняя 
[Ac trans]
+2.6 -5.1 57 1005.9  -1.9  714  285           
03 19.03.16 210 (ЮЗ) 20000 м    8/0 средняя 
[Ac trans]
+3.6 -5.5 51 +2  1004.9  -0.8  713  284  +2.3         
06 19.03.16 250 (З) 6{13}  20000 м    10/0 средняя 
[Ac und]
+6.6 -10 29 +4  1002.5  -1.7  712  281           
09 19.03.16 250 (З) 8-15{15}  20000 м    10/0 средняя, верхняя 
[Ac trans|Ci]
+11.6 -6.8 27 +10  1000.1  -1.4  711  275           
12 19.03.16 260 (З) 15-21{26}  20000 м    10/3 600 м средняя 
[Sc|Ac und]
+10.2 -5.1 34 +7  1000.7  0.4  711  277           
15 19.03.16 320 (СЗ) 5{24}  20000 м    10/3 600 м кучево-дожд., средняя 
[Cb calv|Ac und]
+3 +0 81 +1  1004.2  713  284    +13.6       
18 19.03.16 280 (З) 5{18}  4000 м  слаб. ливневой снег  10/6 200 м кучево-дожд., средняя 
[Cb cap|Ac As]
+0.1 -0.9 93 -3  1006.5  1.6  714  287           
21 19.03.16 260 (З) 9-13{14}  1500 м  ливневой снег  10/10 200 м кучево-дожд. 
[Cb cap]
-1.3 -2 95 -6  1007.7  0.9  714  289           
00 20.03.16 340 (С) 6{15}  3000 м  слаб. снег{ливн. осадки} [диам. гололёда 2 мм]  10/10 100 м 
[Ns]
-4.3 -5.2 93 -9  1010.7  2.1  716  294           
03 20.03.16 320 (СЗ) 4{10}  2500 м  снежные зёрна  10/10 100 м 
[St]
-5.2 -6.2 93 -8  1013.9  2.9  718  296  -5.2    неравномерный
сухой снег
100% 
06 20.03.16 290 (З) 20000 м  {снег} [диам. гололёда 2 мм]  10/8 200 м средняя 
[St|Ac und]
-5.1 -6.3 91 -7  1016.7  2.6  720  296  -6         
09 20.03.16 300 (СЗ) 20000 м  {ливн. осадки, снег} [диам. гололёда 1 мм]  9/5 300 м кучево-дожд., средняя 
[Cb calv|Ac trans]
-2.8 -6 79 -6  1017.7  1.4  721  294           
12 20.03.16 290 (З) 6{11}  4000 м  слаб. ливневой снег  9/5 200 м кучево-дожд., средняя 
[Cb cap|Ac trans]
-2.8 -7.4 71 -7  1017.8  0.1  721  294           
15 20.03.16 250 (З) 5{10}  20000 м  {ливн. осадки}  9/3 600 м верхняя 
[Sc diur, vesp|Ci fib]
-2.2 -7.4 67 -6  1018.3  0.6  722  294    -1.2  0.3     
18 20.03.16 240 (ЮЗ) 20000 м  {ливн. осадки}  3/0 верхняя 
[Ci fib]
-5.3 -9 75 -9  1019.4  0.4  722  298           
21 20.03.16 230 (ЮЗ) 20000 м    5/0 верхняя 
[Ci fib]
-3.3 -8 70 -7  1018.4  -0.5  722  295           
00 21.03.16 270 (З) 10-16{16}  20000 м    3/0 верхняя 
[Ci fib]
-2.7 -8.6 64 -8  1017.5  -0.7  721  294           
03 21.03.16 270 (З) 10-16{16}  20000 м    6/0 верхняя 
[Ci fib]
-2.3 -8 65 -8  1017.8  0.4  721  294  -5.7      сухой снег
50-90% 
06 21.03.16 260 (З) 9-12{16}  20000 м    8/0 средняя 
[Ac trans]
+1 -6.8 56 -3  1018.5  1.3  722  291           
09 21.03.16 270 (З) 9-13{16}  20000 м    8/3 600 м средняя, верхняя 
[Sc|Ac trans|Ci fib]
+4.8 -3.9 53 +1  1017.8  0.1  722  286           
12 21.03.16 270 (З) 7-11{15}  20000 м    8/5 600 м средняя 
[Sc|Ac trans]
+6.8 -3.7 47 +4  1017.5  0.1  722  284           
15 21.03.16 260 (З) 3{11}  20000 м    5/5 1000 м 
[Sc]
+4.6 -4.5 52 +3  1018.1  -0.1  723  287    +6.9       
18 21.03.16 220 (ЮЗ) 20000 м    8/0 средняя 
[Ac trans]
+1.6 -4.9 62 +2  1019  0.3  723  290           
21 21.03.16 140 (ЮВ) 20000 м    9/4 1000 м средняя 
[Sc|Ac trans]
+2.8 -4.3 59 +2  1018.3  -0.4  722  289           
00 22.03.16 170 (Ю) 20000 м    6/0 средняя 
[Ac trans]
+1.5 1017.7  -0.8  722  289           
03 22.03.16 180 (Ю) 20000 м    9/4 1000 м средняя 
[Sc|Ac trans]
+1.9 -9.2 44 1017.5  0.1  722  290  +0.3         
06 22.03.16 160 (Ю) 20000 м    9/3 1000 м средняя 
[Sc|Ac trans]
+5.7 -8.4 35 +4  1017.2  0.4  722  286           
09 22.03.16 150 (ЮВ) 20000 м    8/3 1000 м средняя 
[Sc|Ac trans]
+9.5 -8.2 28 +9  1016.1  -0.3  722  282           
12 22.03.16 330 (СЗ) 20000 м    4/0 средняя 
[Ac trans]
+11 -6.1 30 +12  1013.8  -1.9  720  280           
15 22.03.16 100 (В) 20000 м    3/0 средняя 
[Ac trans]
+7.6 -5.1 40 +7  1013.7  -0.7  720  283    +12       
18 22.03.16 150 (ЮВ) 3{10}  20000 м    3/0 средняя 
[Ac trans]
+5.8 -7.4 38 +5  1013.3  -0.7  719  284           
21 22.03.16 140 (ЮВ) 20000 м    4/0 средняя 
[Ac trans]
+3.6 -7.5 44 +2  1012.2  -1.5  718  286           
00 23.03.16 130 (ЮВ) 20000 м    5/0 средняя 
[Ac trans]
+3.5 -4.5 56 +1  1008.7  -3.3  716  285           
03 23.03.16 130 (ЮВ) 20000 м    10/3 1000 м средняя 
[Sc|Ac und]
+5 -4.9 49 +3  1006.2  -2.1  714  283  +3.2         
06 23.03.16 100 (В) 10 км  слаб. ливневой дождь  10/6 600 м кучево-дожд., средняя 
[Cb cap|Ac und]
+4.4 +1.3 80 +3  1006.3  0.1  714  283           
09 23.03.16 300 (СЗ) 9-13{14}  20000 м  в посл. час ливневой дождь  10/5 600 м кучево-дожд., средняя 
[Cb cap|Ac und]
+8.6 +3.9 72 +6  1007.4  1.9  716  279           
12 23.03.16 300 (СЗ) 10-15{19}  20000 м  {ливн. осадки}  3/3 600 м верхняя 
[Sc diur, vesp|Ci fib]
+6.3 +2 74 +3  1011  2.9  718  282           
15 23.03.16 320 (СЗ) 4{15}  20000 м    4/1 600 м средняя, верхняя 
[Sc diur, vesp|Ac lent|Ci]
+6.3 +0.5 66 +5  1013.6  2.4  720  283    +10.6     
18 23.03.16 250 (З) 20000 м    8/0 средняя, верхняя 
[Ac trans|Ci fib]
+2.8 -0.3 80 +2  1015.7  1.4  721  287           
21 23.03.16 150 (ЮВ) 20000 м    8/3 1000 м верхняя 
[Sc|Ci fib]
+4.3 +0.6 77 +4  1014.8  -0.6  720  286           
00 24.03.16 140 (ЮВ) 20000 м    10/4 1000 м средняя 
[Sc|Ac und]
+3.6 +0.4 80 +2  1013.5  -1.4  719  286           
03 24.03.16 120 (ЮВ) 20000 м    10/4 1000 м средняя 
[Sc|Ac und]
+4.3 +2 85 +3  1012.6  -0.7  719  285  +1.8         
06 24.03.16 130 (ЮВ) 20000 м  в посл. час дождь  10/4 1000 м средняя 
[Sc|Ac und]
+6.7 +3.5 80 +4  1010.5  -1.5  718  282           
09 24.03.16 130 (ЮВ) 9-12{13}  20000 м    9/3 1000 м средняя 
[Sc|Ac As]
+11.2 +3.3 58 +9  1007.3  -2.2  716  277           
12 24.03.16 130 (ЮВ) 7{12}  20000 м    10/3 1000 м средняя 
[Sc|Ac und]
+12.5 +2.9 52 +11  1005.5  -1.4  715  275           
15 24.03.16 150 (ЮВ) 4{10}  20000 м    10/0 средняя 
[As trans]
+11.6 +2.2 52 +11  1005.2  -0.4  714  276    +13  0.0     
18 24.03.16 140 (ЮВ) 20000 м    10/3 600 м средняя 
[Sc|Ac und]
+9.6 +2 59 +8  1006  0.3  715  278           
21 24.03.16 290 (З) 20000 м  {дождь}  10/5 1000 м кучево-дожд., средняя 
[Cb calv|Ac und]
+8.9 +2.9 66 +9  1005.9  -0.2  715  278           
00 25.03.16 060 (СВ) 20000 м  в посл. час ливневой дождь  10/8 1000 м кучево-дожд., средняя 
[Cb calv|Ac und]
+9.1 +2.7 64 +9  1005.9  715  278           
03 25.03.16 120 (ЮВ) 20000 м  слаб. ливневой дождь  10/8 600 м кучево-дожд., средняя 
[Cb cap|Ac und]
+9 +5.4 78 +8  1006  0.1  715  278  +7.5       
06 25.03.16 230 (ЮЗ) 8-11{12}  20000 м  {ливн. осадки}  9/3 1000 м средняя 
[Sc diur, vesp|Ac trans]
+14.4 +6.6 59 +13  1005.5  0.5  715  273           
09 25.03.16 190 (Ю) 6{15}  20000 м  {ливн. осадки}  10/3 600 м средняя 
[Sc diur, vesp|Ac und]
+17.4 +6.2 48 +17  1003.9  -0.9  714  269           
12 25.03.16 290 (З) 8-12{14}  20000 м  {ливн. осадки}  9/3 600 м средняя 
[Sc|Ac trans]
+15.9 +6.5 54 +15  1005.6  1.4  715  271           
15 25.03.16 300 (СЗ) 6{12}  20000 м    8/3 600 м средняя 
[Sc|Ac trans]
+13 +6 62 +12  1007.3  1.1  716  274    +18.1  0.0     
18 25.03.16 270 (З) 6-10{10}  20000 м    10/3 600 м средняя 
[Sc|Ac und]
+10.8 +5.5 70 +9  1009.5  1.7  717  277           
21 25.03.16 290 (З) 3{10}  20000 м  в посл. час ливневой дождь  8/3 600 м средняя 
[Sc diur, vesp|Ac trans]
+7.1 +5.4 89 +6  1011.3  718  281           
00 26.03.16 270 (З) 20000 м  {ливн. осадки, дождь}  10/3 600 м средняя 
[Sc|Ac und]
+5.7 +3.2 84 +4  1011.8  0.1  718  283           
03 26.03.16 290 (З) 10 км  в посл. час морось  10/10 200 м 
[St]
+5 +3.4 89 +4  1012.4  0.1  719  284  +5       
06 26.03.16 300 (СЗ) 20000 м  {морось}  10/6 300 м средняя 
[Sc|Ac und]
+5.4 +2.9 84 +4  1012.5  0.2  719  283  +4.9         
09 26.03.16 310 (СЗ) 20000 м    10/6 300 м средняя 
[Sc|Ac und]
+7.4 +3.9 78 +7  1011.3  -0.8  718  281           
12 26.03.16 320 (СЗ) 20000 м    9/5 600 м средняя 
[Sc|Ac trans]
+9.9 +4.8 71 +9  1010.1  -0.7  718  278           
15 26.03.16 350 (С) 20000 м    10/6 600 м средняя 
[Sc|Ac und]
+7.8 +4.2 78 +7  1010.9  0.4  718  281    +10.3       
18 26.03.16 330 (СЗ) 2500 м  слаб. ливневой дождь  10/8 200 м кучево-дожд., средняя 
[Cb cap|Ac und]
+5.6 +4.5 93 +5  1012.9  1.5  719  283           
21 26.03.16 340 (С) 4000 м  дымка{ливн. осадки}  10/8 100 м кучево-дожд., средняя 
[Cb calv|Ac und]
+3.5 +2.7 94 +2  1013.4  -0.1  719  286           
00 27.03.16 330 (СЗ) 0700 м  туман{ливн. осадки}  ?/?  
+2.7 +1.9 94 +1  1014  0.5  719  287           
03 27.03.16 300 (СЗ) 4000 м  слаб. дождь{туман}  10/10 200 м 
[Frnb|Ns]
+1.7 +1 95 1014.9  0.6  720  288  +1.7       
06 27.03.16 270 (З) 3000 м  слаб. ливневой снег{дождь}  10/8 200 м кучево-дожд., средняя 
[Cb cap|Ac und]
+0.7 -0.1 94 1016.5  1.3  721  290  +0.7         
09 27.03.16 270 (З) 20000 м  слаб. ливневой дождь  10/8 300 м кучево-дожд., средняя 
[Cb cap|Ac und]
+3 +0.9 86 +1  1016.1  0.1  721  287           
12 27.03.16 290 (З) 20000 м  {ливн. осадки}  8/4 600 м кучево-дожд., средняя 
[Cb calv|Ac trans]
+5.2 -1.6 61 +4  1015.1  -0.6  721  285           
15 27.03.16 310 (СЗ) 20000 м    9/4 1000 м средняя 
[Sc diur, vesp|Ac trans]
+5.3 -1.5 61 +6  1015.3  0.3  721  285    +5.9     
18 27.03.16 090 (В) 20000 м    10/0 средняя 
[Ac und]
+3.3 -0 79 +3  1016.1  0.4  721  287           
21 27.03.16 130 (ЮВ) 20000 м    10/4 1000 м кучево-дожд., средняя 
[Cb calv|Ac und]
+3.2 +0.5 82 +3  1016  -0.2  721  287           
00 28.03.16 120 (ЮВ) 20000 м    10/0 кучево-дожд., средняя 
[Cb calv|Ac und]
+3.1 +0.8 85 +3  1015.3  -0.6  720  287           
03 28.03.16 130 (ЮВ) 20000 м    10/3 1000 м кучево-дожд., средняя 
[Cb calv|Ac und]
+2.7 +1.1 89 +2  1015.3  -0.1  720  287  +2.5         
06 28.03.16 120 (ЮВ) 20000 м    10/0 средняя 
[Ac und]
+5 +1.2 76 +4  1015  0.1  720  285           
09 28.03.16 110 (В) 20000 м    10/3 600 м средняя 
[Sc|Ac und]
+7 -0.5 59 +5  1014  0.1  720  283           
12 28.03.16 100 (В) 20000 м    10/6 600 м средняя 
[Sc|Ac und]
+6.4 +1.6 71 +5  1013.3  -0.7  719  283           
15 28.03.16 110 (В) 20000 м    10/8 300 м средняя 
[Sc|Ac und]
+5 +1.8 80 +3  1014.3  0.6  720  285    +7.7       
18 28.03.16 110 (В) 4000 м  дымка{ливн. осадки}  10/8 200 м кучево-дожд., средняя 
[Cb calv|Ac und]
+3.7 +2.8 94 +1  1015.1  0.6  720  286           
21 28.03.16 110 (В) 2000 м  слаб. морось  10/10 100 м 
[St]
+3.3 +2.4 94 +2  1015.4  0.2  721  286           
00 29.03.16 090 (В) 1000 м  слаб. дождь{морось}  10/10 200 м 
[Ns]
+3 +2.3 95 +2  1015.3  -0.2  720  287           
03 29.03.16 180 (Ю) 10 км  слаб. дождь  10/10 200 м 
[Frnb|Ns]
+1.3 +0.5 94 +1  1016.6  0.9  721  289  +1.3       
06 29.03.16 180 (Ю) 4000 м  слаб. ливневой снег  10/8 300 м кучево-дожд., средняя 
[Cb cap|Ac und]
+1.5 +0.7 94 +1  1017.7  1.1  722  289  +0.2         
09 29.03.16 300 (СЗ) 10 км  слаб. ливневой дождь  10/8 300 м кучево-дожд., средняя 
[Cb cap|Ac und]
+4.2 +2.3 87 +3  1017.8  0.6  722  286           
12 29.03.16 300 (СЗ) 10 км  слаб. дождь{ливн. осадки}  10/10 200 м 
[Frnb|Ns]
+4 +2.4 89 +2  1018.5  0.7  723  287           
15 29.03.16 300 (СЗ) 10 км  слаб. дождь  10/10 300 м 
[Frnb|Ns]
+3.2 +1.8 91 +2  1020.2  1.4  724  288    +4.5     
18 29.03.16 300 (СЗ) 10 км  слаб. дождь  10/10 300 м 
[Ns]
+2.7 +1.3 90 +1  1021.7  1.3  725  289           
21 29.03.16 300 (СЗ) 20000 м  слаб. дождь  10/10 300 м 
[Frnb|Ns]
+3 +1.4 89 +1  1021.6  725  289           
00 30.03.16 300 (СЗ) 10 км  слаб. дождь  10/10 600 м 
[Ns]
+3.1 +1.6 90 +2  1021.7  0.1  725  289           
03 30.03.16 310 (СЗ) 10 км  слаб. дождь  10/10 300 м 
[Ns]
+3.2 +2 92 +4  1022.4  0.7  725  289  +2.7       
06 30.03.16 300 (СЗ) 10 км  {дождь}  10/6 300 м средняя 
[Sc|Ac und]
+5.3 +2.5 82 +4  1022.7  0.7  726  287           
09 30.03.16 320 (СЗ) 10 км    10/6 300 м средняя 
[Sc|Ac und]
+5.6 +2 78 +4  1022.9  0.7  726  286           
12 30.03.16 330 (СЗ) 10 км  слаб. дождь  10/5 300 м средняя 
[Frnb|As op]
+5.7 +3.3 85 +4  1022.9  726  286           
15 30.03.16 330 (СЗ) 10 км  слаб. дождь  10/10 300 м 
[Frnb|Ns]
+4.9 +3.3 89 +5  1023.2  0.2  726  287    +6.3  0.5     
18 30.03.16 300 (СЗ) 10 км  {дождь}  10/5 600 м средняя 
[Sc|Ac und]
+4.1 +2.8 91 +4  1023.8  0.4  727  288           
21 30.03.16 290 (З) 10 км    10/5 600 м средняя 
[Sc|Ac und]
+3.8 +1.7 86 +3  1023.9  727  288           
00 31.03.16 280 (З) 10 км  слаб. дождь  10/10 600 м 
[Ns]
+3.9 +1.9 87 +3  1023.6  -0.3  726  288           
03 31.03.16 320 (СЗ) 10 км  слаб. дождь  10/10 600 м 
[Ns]
+3.8 +1.9 87 +3  1024.3  0.7  727  289  +2.6    0.6     
06 31.03.16 290 (З) 20000 м  {дождь}  10/5 600 м средняя 
[Sc|Ac und]
+5.2 +2.9 85 +5  1025.5  1.4  728  287           
09 31.03.16 220 (ЮЗ) 20000 м  {дождь}  10/4 600 м средняя 
[Sc|Ac und]
+6.6 +3.4 80 +6  1025.2  728  286           
12 31.03.16 320 (СЗ) 20000 м  {дождь}  10/5 600 м средняя 
[Sc|Ac und]
+8.3 +0.9 60 +8  1024.6  -0.3  728  284           
15 31.03.16 250 (З) 20000 м    6/3 1000 м средняя 
[Sc|Ac trans]
+7.9 +0 57 +8  1024.6  0.1  728  285    +9.4  0.5     
18 31.03.16 210 (ЮЗ) 20000 м    4/0 средняя 
[Ac trans]
+6.1 -0.1 64 +6  1025  0.1  728  287           
21 31.03.16 230 (ЮЗ) 20000 м    3/0 средняя 
[Ac trans]
+2.9 -1.5 73 +2  1025.3  -0.4  727  290           
00 01.04.16 240 (ЮЗ) 20000 м    ясно 
+1.3 -1.9 79 1024.9  -0.7  727  292           
03 01.04.16 220 (ЮЗ) 20000 м    8/0 средняя 
[Ac trans]
+3.7 -0.3 75 +2  1024.1  -0.2  727  289  +0.9        влажная 
Время (UTC), дата Ветер
(°,м/с) 
Видим.   Явления Облачность Т
(°С)
Тd
(°С)
f(%) Тe
(°С)
Pmin
(гПа)
dP
(гПа)
Po
(мм)
O2
(г/м3)
Тmin Tmax R s Состояние
почвы